Elko, NV

11:52 AM PDT on August 25, 2016 (GMT -0700)
Elko Regional

Weather History for KEKO - April, 2014

Change the Weather History Date:

Saturday, April 12, 2014

  Actual Average Record
Temperature  
Mean Temperature 53 °F 44 °F  
Max Temperature 71 °F 58 °F 81 °F (1988)
Min Temperature 34 °F 30 °F 6 °F (1970)
Degree Days  
Heating Degree Days 12 21  
Month to date heating degree days 244 262  
Since 1 July heating degree days 5733 6239  
Cooling Degree Days 0 0  
Month to date cooling degree days 0 0  
Year to date cooling degree days 0 0  
Growing Degree Days 2 (Base 50)    
Moisture  
Dew Point 23 °F    
Average Humidity 48    
Maximum Humidity 82    
Minimum Humidity 14    
Precipitation  
Precipitation T in 0.03 in 0.80 in (1900)
Month to date precipitation 0.30 0.38  
Year to date precipitation 3.93 3.34  
Snow  
Snow 0.00 in 0.20 in 0.80 in (1900)
Month to date snowfall 2.6 1.8  
Since 1 July snowfall 20.2 39.4  
Snow Depth 0.00 in    
Sea Level Pressure  
Sea Level Pressure 29.75 in    
Wind  
Wind Speed 9 mph (WNW)    
Max Wind Speed 30 mph    
Max Gust Speed 38 mph    
Visibility 10 miles    
Events      
T = Trace of Precipitation, MM = Missing Value Source: NWS Daily Summary

Daily Weather History Graph

Daily Weather History Graph

Search for Another Location

Airport or City:

Trip Planner

Search our weather history database for the weather conditions in past years. The results will help you decide how hot, cold, wet, or windy it might be!

Date:

Astronomy

Apr. 12, 2014 Rise Set
Actual Time 6:08 AM PDT 7:19 PM PDT
Civil Twilight 5:40 AM PDT 7:47 PM PDT
Nautical Twilight 5:06 AM PDT 8:21 PM PDT
Astronomical Twilight 4:31 AM PDT 8:57 PM PDT
Moon 5:01 PM PDT (4/12) 4:38 AM PDT (4/12)
Length of Visible Light 14h 07m
Length of Day
13h 10m
Waxing Gibbous, 93% of the Moon is Illuminated
Apr 12
Waxing Gibbous
Apr 15
Full
Apr 22
Last Quarter
Apr 28
New
May 6
First Quarter

Hourly Weather History & Observations

Time (PDT) Temp. Windchill Dew Point Humidity Pressure Visibility Wind Dir Wind Speed Gust Speed Precip Events Conditions
12:56 AM 44.1 °F 41.5 °F 24.1 °F 45% 29.79 in 10.0 mi East 4.6 mph - N/A   Clear
1:56 AM 37.9 °F 34.4 °F 26.1 °F 62% 29.80 in 10.0 mi West 4.6 mph - N/A   Clear
2:56 AM 39.9 °F 35.8 °F 26.1 °F 58% 29.78 in 10.0 mi East 5.8 mph - N/A   Clear
3:56 AM 39.0 °F 36.8 °F 26.1 °F 60% 29.79 in 10.0 mi East 3.5 mph - N/A   Clear
4:56 AM 35.1 °F 32.2 °F 27.0 °F 72% 29.79 in 10.0 mi East 3.5 mph - N/A   Clear
5:56 AM 37.9 °F 35.5 °F 27.0 °F 65% 29.79 in 10.0 mi NE 3.5 mph - N/A   Mostly Cloudy
6:56 AM 34.0 °F 29.8 °F 28.0 °F 79% 29.82 in 10.0 mi SSW 4.6 mph - N/A   Clear
7:56 AM 42.1 °F 40.2 °F 28.9 °F 60% 29.82 in 10.0 mi SSW 3.5 mph - N/A   Scattered Clouds
8:56 AM 48.9 °F - 30.0 °F 48% 29.80 in 10.0 mi Calm Calm - N/A   Mostly Cloudy
9:56 AM 53.1 °F - 30.0 °F 41% 29.81 in 10.0 mi Variable 3.5 mph - N/A   Overcast
10:56 AM 57.0 °F - 34.0 °F 42% 29.79 in 10.0 mi WSW 4.6 mph - 0.00 in   Partly Cloudy
11:56 AM 63.0 °F - 34.0 °F 34% 29.75 in 10.0 mi SSW 10.4 mph - N/A   Mostly Cloudy
12:56 PM 66.9 °F - 30.9 °F 26% 29.72 in 10.0 mi West 17.3 mph 25.3 mph N/A   Scattered Clouds
1:56 PM 66.9 °F - 28.0 °F 23% 29.71 in 10.0 mi West 19.6 mph 28.8 mph N/A   Partly Cloudy
2:56 PM 66.0 °F - 26.1 °F 22% 29.68 in 10.0 mi West 13.8 mph - N/A   Scattered Clouds
3:56 PM 69.1 °F - 17.1 °F 14% 29.65 in 10.0 mi WSW 25.3 mph 33.4 mph N/A   Partly Cloudy
4:56 PM 68.0 °F - 19.0 °F 15% 29.65 in 10.0 mi West 21.9 mph 31.1 mph N/A   Partly Cloudy
5:56 PM 66.0 °F - 16.0 °F 15% 29.64 in 10.0 mi West 16.1 mph - N/A   Partly Cloudy
6:20 PM 63.0 °F - 19.0 °F 18% 29.72 in 10.0 mi North 13.8 mph - N/A   Mostly Cloudy
6:56 PM 62.1 °F - 12.9 °F 15% 29.67 in 10.0 mi NNW 13.8 mph - N/A   Mostly Cloudy
7:56 PM 57.0 °F - 12.0 °F 17% 29.69 in 10.0 mi NNW 11.5 mph - N/A   Mostly Cloudy
8:56 PM 54.0 °F - 10.0 °F 17% 29.71 in 10.0 mi NE 9.2 mph - N/A   Partly Cloudy
9:56 PM 52.0 °F - 12.9 °F 21% 29.73 in 10.0 mi NNE 5.8 mph - N/A   Clear
10:56 PM 46.9 °F - 18.0 °F 32% 29.75 in 10.0 mi ENE 8.1 mph - N/A   Clear
11:56 PM 42.1 °F - 19.0 °F 40% 29.78 in 10.0 mi Calm Calm - N/A   Clear